| time (UTC) | temp C | wind direction | speed KPH | gust KPH | rain 1hr cm | rain 24hr cm | rain mn cm | humidity % | barometer mb |
| 20260901063604 | 23 | 0 | 0.0 | 0.0 | 0.00 | 0.30 | 0.00 | 1 | 1018.3 |
| 20260901062704 | 23 | 0 | 0.0 | 0.0 | 0.00 | 0.30 | 0.00 | 1 | 1018.5 |
| 20260901061805 | 23 | 0 | 0.0 | 0.0 | 0.00 | 0.30 | 0.00 | 1 | 1018.5 |
| 20260901061116 | 23 | 0 | 0.0 | 0.0 | 0.00 | 0.30 | 0.00 | 1 | 1018.6 |
| 20260901060218 | 23 | 0 | 0.0 | 0.0 | 0.00 | 0.30 | 0.00 | 1 | 1018.5 |
| 20260901055404 | 23 | 0 | 0.0 | 0.0 | 0.00 | 0.30 | 0.00 | 1 | 1018.5 |
| 20260901054504 | 23 | 11 | 0.0 | 1.6 | 0.00 | 0.30 | 0.00 | 1 | 1018.6 |
| 20260901053604 | 23 | 11 | 0.0 | 1.6 | 0.00 | 0.30 | 0.00 | 1 | 1018.7 |
| 20260901052704 | 23 | 0 | 0.0 | 0.0 | 0.00 | 0.30 | 0.00 | 1 | 1018.8 |
| 20260901051804 | 23 | 0 | 0.0 | 0.0 | 0.00 | 0.30 | 0.00 | 1 | 1018.8 |
| 20260901050905 | 23 | 0 | 0.0 | 0.0 | 0.00 | 0.30 | 0.00 | 1 | 1018.7 |
| 20260901050214 | 23 | 0 | 0.0 | 0.0 | 0.00 | 0.30 | 0.00 | 1 | 1018.7 |
| 20260901045405 | 23 | 0 | 0.0 | 0.0 | 0.00 | 0.30 | 0.00 | 1 | 1018.6 |
| 20260901044506 | 23 | 0 | 0.0 | 0.0 | 0.00 | 0.30 | 0.00 | 1 | 1018.7 |
| 20260901043604 | 23 | 0 | 0.0 | 0.0 | 0.00 | 0.30 | 0.00 | 1 | 1018.7 |
| 20260901042705 | 23 | 0 | 0.0 | 0.0 | 0.00 | 0.30 | 0.00 | 1 | 1018.8 |
| 20260901041804 | 23 | 0 | 0.0 | 0.0 | 0.00 | 0.30 | 0.00 | 1 | 1018.7 |
| 20260901040904 | 23 | 0 | 0.0 | 0.0 | 0.00 | 0.30 | 0.00 | 1 | 1018.6 |
| 20260901040214 | 23 | 0 | 0.0 | 0.0 | 0.00 | 0.30 | 0.00 | 1 | 1018.7 |
| 20260901035405 | 23 | 0 | 0.0 | 0.0 | 0.00 | 0.30 | 0.30 | 1 | 1018.8 |
| 20260901034504 | 23 | 0 | 0.0 | 0.0 | 0.00 | 0.30 | 0.30 | 1 | 1018.7 |
| 20260901033604 | 23 | 0 | 0.0 | 0.0 | 0.00 | 0.30 | 0.30 | 1 | 1018.8 |
| 20260901032918 | 23 | 0 | 0.0 | 0.0 | 0.00 | 0.30 | 0.30 | 1 | 1018.7 |
| 20260901031805 | 23 | 0 | 0.0 | 0.0 | 0.00 | 0.30 | 0.30 | 1 | 1018.7 |
| 20260901030904 | 23 | 0 | 0.0 | 0.0 | 0.00 | 0.30 | 0.30 | 1 | 1018.7 |
| 20260901030005 | 23 | 0 | 0.0 | 0.0 | 0.00 | 0.30 | 0.30 | 1 | 1018.7 |
| 20260901025405 | 23 | 11 | 0.0 | 1.6 | 0.00 | 0.30 | 0.30 | 1 | 1018.6 |
| 20260901024504 | 24 | 11 | 0.0 | 1.6 | 0.00 | 0.30 | 0.30 | 1 | 1018.7 |
| 20260901023604 | 24 | 11 | 0.0 | 1.6 | 0.00 | 0.30 | 0.30 | 1 | 1018.8 |
| 20260901022704 | 24 | 0 | 0.0 | 0.0 | 0.00 | 0.30 | 0.30 | 1 | 1018.8 |
| 20260901021805 | 24 | 11 | 0.0 | 1.6 | 0.00 | 0.30 | 0.30 | 1 | 1018.9 |
| 20260901020904 | 24 | 11 | 0.0 | 1.6 | 0.00 | 0.30 | 0.30 | 1 | 1018.9 |
| 20260901020216 | 24 | 11 | 0.0 | 1.6 | 0.00 | 0.30 | 0.30 | 1 | 1018.9 |
| 20260901015404 | 24 | 11 | 0.0 | 1.6 | 0.00 | 0.30 | 0.30 | 1 | 1019.0 |
| 20260901014504 | 24 | 9 | 1.6 | 4.8 | 0.00 | 0.30 | 0.30 | 1 | 1018.9 |
| 20260901013604 | 24 | 3 | 0.0 | 1.6 | 0.00 | 0.30 | 0.30 | 1 | 1018.7 |
| 20260901012704 | 24 | 0 | 0.0 | 0.0 | 0.00 | 0.30 | 0.30 | 1 | 1018.5 |
| 20260901011805 | 24 | 0 | 0.0 | 0.0 | 0.00 | 0.30 | 0.30 | 1 | 1018.4 |
| 20260901010905 | 24 | 0 | 0.0 | 0.0 | 0.00 | 0.30 | 0.30 | 1 | 1018.3 |
| 20260901010005 | 24 | 0 | 0.0 | 0.0 | 0.00 | 0.30 | 0.30 | 1 | 1018.3 |
| 20260901005404 | 24 | 0 | 0.0 | 0.0 | 0.00 | 0.30 | 0.30 | 1 | 1018.3 |
| 20260901004504 | 24 | 0 | 0.0 | 0.0 | 0.00 | 0.30 | 0.30 | 1 | 1018.3 |
| 20260901003818 | 24 | 0 | 0.0 | 0.0 | 0.00 | 0.30 | 0.30 | 1 | 1018.2 |
| 20260901002704 | 24 | 0 | 0.0 | 0.0 | 0.00 | 0.30 | 0.30 | 1 | 1018.2 |
| 20260901001805 | 24 | 0 | 0.0 | 0.0 | 0.00 | 0.30 | 0.30 | 1 | 1018.2 |
| 20260901000905 | 25 | 0 | 0.0 | 0.0 | 0.00 | 0.30 | 0.30 | 1 | 1018.0 |
| 20260901000218 | 25 | 0 | 0.0 | 0.0 | 0.00 | 0.30 | 0.30 | 1 | 1018.1 |
| 20260831235619 | 25 | 0 | 0.0 | 0.0 | 0.00 | 0.30 | 0.30 | 1 | 1018.0 |
| 20260831234505 | 25 | 0 | 0.0 | 0.0 | 0.00 | 0.30 | 0.30 | 1 | 1017.9 |
| 20260831233605 | 25 | 356 | 0.0 | 1.6 | 0.00 | 0.30 | 0.30 | 1 | 1017.9 |
| 20260831232704 | 25 | 0 | 0.0 | 0.0 | 0.00 | 0.30 | 0.30 | 1 | 1018.1 |
| 20260831231804 | 25 | 0 | 0.0 | 0.0 | 0.00 | 0.30 | 0.30 | 1 | 1018.0 |
| 20260831230905 | 26 | 0 | 0.0 | 0.0 | 0.00 | 0.30 | 0.30 | 1 | 1017.9 |
| 20260831230005 | 26 | 314 | 0.0 | 1.6 | 0.00 | 0.30 | 0.30 | 1 | 1018.0 |
| 20260831225404 | 26 | 0 | 0.0 | 0.0 | 0.00 | 0.30 | 0.30 | 1 | 1017.9 |
| 20260831224504 | 26 | 0 | 0.0 | 0.0 | 0.00 | 0.30 | 0.30 | 1 | 1018.0 |
| 20260831223604 | 27 | 0 | 0.0 | 0.0 | 0.00 | 0.30 | 0.30 | 1 | 1018.0 |
| 20260831222704 | 27 | 123 | 0.0 | 3.2 | 0.00 | 0.30 | 0.30 | 1 | 1017.8 |
| 20260831221805 | 27 | 154 | 0.0 | 4.8 | 0.00 | 0.30 | 0.30 | 1 | 1017.9 |
| 20260831221116 | 27 | 107 | 0.0 | 8.0 | 0.00 | 0.30 | 0.30 | 1 | 1018.0 |
| 20260831220005 | 27 | 75 | 1.6 | 8.0 | 0.00 | 0.30 | 0.30 | 1 | 1017.9 |
| 20260831215615 | 27 | 55 | 1.6 | 8.0 | 0.00 | 0.30 | 0.30 | 1 | 1018.0 |
| 20260831214504 | 27 | 6 | 0.0 | 3.2 | 0.15 | 0.30 | 0.30 | 1 | 1018.0 |
| 20260831213815 | 26 | 351 | 0.0 | 1.6 | 0.20 | 0.30 | 0.30 | 1 | 1017.9 |
| 20260831212704 | 26 | 82 | 1.6 | 4.8 | 0.23 | 0.30 | 0.30 | 1 | 1017.7 |
| 20260831211805 | 26 | 132 | 0.0 | 3.2 | 0.25 | 0.30 | 0.30 | 1 | 1017.7 |
| 20260831210904 | 25 | 158 | 0.0 | 1.6 | 0.25 | 0.30 | 0.30 | 1 | 1017.8 |
| 20260831210005 | 25 | 228 | 1.6 | 4.8 | 0.28 | 0.30 | 0.30 | 1 | 1018.2 |
| 20260831205616 | 25 | 199 | 1.6 | 4.8 | 0.28 | 0.30 | 0.30 | 1 | 1018.3 |
| 20260831204504 | 25 | 251 | 0.0 | 4.8 | 0.13 | 0.15 | 0.15 | 1 | 1018.4 |
| 20260831203815 | 26 | 296 | 0.0 | 4.8 | 0.08 | 0.10 | 0.10 | 1 | 1018.5 |
| 20260831202917 | 26 | 281 | 0.0 | 6.4 | 0.05 | 0.08 | 0.08 | 1 | 1018.9 |
| 20260831201804 | 27 | 269 | 1.6 | 4.8 | 0.03 | 0.05 | 0.05 | 1 | 1019.0 |
| 20260831201117 | 27 | 271 | 3.2 | 12.9 | 0.03 | 0.05 | 0.05 | 1 | 1018.9 |
| 20260831200214 | 28 | 319 | 4.8 | 12.9 | 0.00 | 0.03 | 0.03 | 18 | 1018.4 |
| 20260831195616 | 29 | 323 | 3.2 | 11.3 | 0.00 | 0.03 | 0.03 | 36 | 1018.2 |
| 20260831194504 | 31 | 287 | 3.2 | 14.5 | 0.00 | 0.03 | 0.03 | 50 | 1017.9 |
| 20260831193604 | 32 | 107 | 1.6 | 6.4 | 0.00 | 0.03 | 0.03 | 53 | 1017.4 |
| 20260831192705 | 32 | 125 | 1.6 | 6.4 | 0.00 | 0.03 | 0.03 | 53 | 1017.6 |
| 20260831191804 | 33 | 229 | 0.0 | 3.2 | 0.00 | 0.03 | 0.03 | 53 | 1017.7 |
| 20260831190905 | 33 | 274 | 1.6 | 6.4 | 0.00 | 0.03 | 0.03 | 53 | 1017.8 |
| 20260831190005 | 33 | 250 | 1.6 | 4.8 | 0.00 | 0.03 | 0.03 | 54 | 1017.7 |
| 20260831185404 | 33 | 229 | 1.6 | 4.8 | 0.00 | 0.03 | 0.03 | 53 | 1017.8 |
| 20260831184504 | 33 | 301 | 1.6 | 6.4 | 0.00 | 0.03 | 0.03 | 51 | 1017.9 |
| 20260831183604 | 34 | 260 | 1.6 | 8.0 | 0.00 | 0.03 | 0.03 | 50 | 1018.0 |
| 20260831182704 | 34 | 125 | 1.6 | 3.2 | 0.00 | 0.03 | 0.03 | 53 | 1018.0 |
| 20260831181804 | 33 | 244 | 1.6 | 8.0 | 0.00 | 0.03 | 0.03 | 53 | 1018.1 |
| 20260831180904 | 33 | 271 | 3.2 | 8.0 | 0.00 | 0.03 | 0.03 | 53 | 1018.3 |
| 20260831180004 | 33 | 239 | 1.6 | 8.0 | 0.00 | 0.03 | 0.03 | 53 | 1018.3 |
| 20260831175617 | 33 | 128 | 3.2 | 9.7 | 0.00 | 0.03 | 0.03 | 52 | 1018.5 |
| 20260831174715 | 33 | 86 | 3.2 | 9.7 | 0.00 | 0.03 | 0.03 | 53 | 1018.4 |
| 20260831173605 | 32 | 103 | 4.8 | 11.3 | 0.00 | 0.03 | 0.03 | 48 | 1018.4 |
| 20260831172705 | 32 | 88 | 3.2 | 9.7 | 0.00 | 0.03 | 0.03 | 45 | 1018.6 |
| 20260831171804 | 32 | 116 | 4.8 | 9.7 | 0.00 | 0.03 | 0.03 | 48 | 1018.6 |
| 20260831170904 | 32 | 89 | 4.8 | 11.3 | 0.00 | 0.03 | 0.03 | 42 | 1018.6 |
| 20260831170005 | 31 | 116 | 4.8 | 11.3 | 0.00 | 0.03 | 0.03 | 39 | 1018.7 |
| 20260831165404 | 31 | 101 | 4.8 | 9.7 | 0.00 | 0.03 | 0.03 | 41 | 1018.8 |
| 20260831164505 | 31 | 106 | 4.8 | 12.9 | 0.00 | 0.03 | 0.03 | 40 | 1018.8 |
| 20260831163605 | 31 | 102 | 4.8 | 8.0 | 0.00 | 0.03 | 0.03 | 35 | 1019.0 |
| 20260831162704 | 31 | 57 | 4.8 | 11.3 | 0.00 | 0.03 | 0.03 | 35 | 1019.1 |
| 20260831161805 | 32 | 196 | 1.6 | 6.4 | 0.00 | 0.03 | 0.03 | 48 | 1019.3 |
| 20260831160904 | 31 | 275 | 1.6 | 6.4 | 0.00 | 0.03 | 0.03 | 44 | 1019.4 |
| 20260831160005 | 31 | 131 | 1.6 | 8.0 | 0.00 | 0.03 | 0.03 | 46 | 1019.4 |
| 20260831155404 | 31 | 17 | 1.6 | 4.8 | 0.00 | 0.03 | 0.03 | 38 | 1019.4 |
| 20260831154716 | 31 | 331 | 1.6 | 11.3 | 0.00 | 0.03 | 0.03 | 37 | 1019.5 |
| 20260831153605 | 30 | 268 | 1.6 | 6.4 | 0.00 | 0.03 | 0.03 | 32 | 1019.6 |
| 20260831152705 | 30 | 259 | 1.6 | 8.0 | 0.00 | 0.03 | 0.03 | 40 | 1019.5 |
| 20260831151804 | 30 | 7 | 1.6 | 8.0 | 0.00 | 0.03 | 0.03 | 25 | 1019.5 |
| 20260831150905 | 30 | 322 | 1.6 | 8.0 | 0.00 | 0.03 | 0.03 | 24 | 1019.5 |
| 20260831150005 | 30 | 250 | 1.6 | 4.8 | 0.00 | 0.03 | 0.03 | 7 | 1019.5 |
| 20260831145405 | 30 | 268 | 1.6 | 8.0 | 0.00 | 0.03 | 0.03 | 1 | 1019.6 |
| 20260831144504 | 29 | 266 | 1.6 | 4.8 | 0.00 | 0.03 | 0.03 | 1 | 1019.6 |
| 20260831143605 | 28 | 250 | 1.6 | 6.4 | 0.00 | 0.03 | 0.03 | 1 | 1019.6 |
| 20260831142705 | 28 | 276 | 1.6 | 8.0 | 0.00 | 0.03 | 0.03 | 1 | 1019.7 |
| 20260831142014 | 28 | 257 | 1.6 | 8.0 | 0.00 | 0.03 | 0.03 | 1 | 1019.6 |
| 20260831141116 | 28 | 255 | 1.6 | 12.9 | 0.00 | 0.03 | 0.03 | 1 | 1019.6 |
| 20260831140005 | 28 | 262 | 3.2 | 8.0 | 0.00 | 0.03 | 0.03 | 1 | 1019.6 |
| 20260831135405 | 28 | 261 | 3.2 | 9.7 | 0.00 | 0.03 | 0.03 | 1 | 1019.5 |
| 20260831134504 | 28 | 271 | 1.6 | 8.0 | 0.00 | 0.03 | 0.03 | 1 | 1019.4 |
| 20260831133604 | 27 | 291 | 1.6 | 8.0 | 0.00 | 0.03 | 0.03 | 1 | 1019.4 |
| 20260831132704 | 27 | 326 | 1.6 | 4.8 | 0.00 | 0.03 | 0.03 | 1 | 1019.4 |
| 20260831131804 | 27 | 252 | 0.0 | 6.4 | 0.00 | 0.03 | 0.03 | 1 | 1019.3 |
| 20260831130905 | 26 | 243 | 0.0 | 3.2 | 0.00 | 0.03 | 0.03 | 1 | 1019.3 |
| 20260831130005 | 26 | 247 | 0.0 | 6.4 | 0.00 | 0.03 | 0.03 | 1 | 1019.3 |
| 20260831125615 | 25 | 258 | 1.6 | 6.4 | 0.00 | 0.03 | 0.03 | 1 | 1019.2 |
| 20260831124505 | 25 | 269 | 0.0 | 4.8 | 0.00 | 0.03 | 0.03 | 1 | 1019.2 |
| 20260831123604 | 24 | 231 | 0.0 | 3.2 | 0.00 | 0.03 | 0.03 | 1 | 1019.2 |
| 20260831122705 | 23 | 237 | 0.0 | 4.8 | 0.00 | 0.03 | 0.03 | 1 | 1019.3 |
| 20260831121804 | 23 | 186 | 0.0 | 4.8 | 0.00 | 0.03 | 0.03 | 1 | 1019.3 |
| 20260831120904 | 23 | 188 | 1.6 | 3.2 | 0.00 | 0.03 | 0.03 | 1 | 1019.4 |
| 20260831120005 | 23 | 189 | 0.0 | 3.2 | 0.00 | 0.03 | 0.03 | 1 | 1019.5 |
| 20260831115404 | 23 | 189 | 0.0 | 3.2 | 0.03 | 0.03 | 0.03 | 1 | 1019.6 |
| 20260831114504 | 22 | 195 | 0.0 | 3.2 | 0.03 | 0.03 | 0.03 | 1 | 1019.6 |
| 20260831113605 | 22 | 0 | 0.0 | 0.0 | 0.03 | 0.03 | 0.03 | 1 | 1019.5 |
| 20260831112704 | 22 | 0 | 0.0 | 0.0 | 0.03 | 0.03 | 0.03 | 1 | 1019.5 |
| 20260831111805 | 22 | 194 | 0.0 | 1.6 | 0.03 | 0.03 | 0.03 | 1 | 1019.5 |
| 20260831110904 | 22 | 194 | 0.0 | 1.6 | 0.03 | 0.03 | 0.03 | 1 | 1019.5 |
| 20260831110005 | 21 | 194 | 0.0 | 1.6 | 0.03 | 0.03 | 0.03 | 1 | 1019.4 |
| 20260831105404 | 21 | 0 | 0.0 | 0.0 | 0.00 | 0.00 | 0.00 | 1 | 1019.3 |
| 20260831104505 | 21 | 0 | 0.0 | 0.0 | 0.00 | 0.00 | 0.00 | 1 | 1019.3 |
| 20260831103604 | 21 | 0 | 0.0 | 0.0 | 0.00 | 0.00 | 0.00 | 1 | 1019.2 |
| 20260831102704 | 21 | 285 | 0.0 | 1.6 | 0.00 | 0.00 | 0.00 | 1 | 1019.1 |
| 20260831101804 | 21 | 0 | 0.0 | 0.0 | 0.00 | 0.00 | 0.00 | 1 | 1019.1 |
| 20260831100904 | 22 | 0 | 0.0 | 0.0 | 0.00 | 0.00 | 0.00 | 1 | 1019.0 |
| 20260831100005 | 22 | 285 | 0.0 | 1.6 | 0.00 | 0.00 | 0.00 | 1 | 1019.1 |
| 20260831095405 | 22 | 285 | 0.0 | 1.6 | 0.00 | 0.00 | 0.00 | 1 | 1019.1 |
| 20260831094504 | 22 | 285 | 0.0 | 1.6 | 0.00 | 0.00 | 0.00 | 1 | 1019.1 |
| 20260831093605 | 22 | 285 | 0.0 | 1.6 | 0.00 | 0.00 | 0.00 | 1 | 1019.0 |
| 20260831092704 | 22 | 0 | 0.0 | 0.0 | 0.00 | 0.00 | 0.00 | 1 | 1018.9 |
| 20260831091805 | 22 | 285 | 0.0 | 1.6 | 0.00 | 0.00 | 0.00 | 1 | 1018.9 |
| 20260831090905 | 22 | 285 | 0.0 | 1.6 | 0.00 | 0.00 | 0.00 | 1 | 1018.8 |
| 20260831090005 | 22 | 285 | 0.0 | 1.6 | 0.00 | 0.00 | 0.00 | 1 | 1018.9 |
| 20260831085618 | 22 | 285 | 0.0 | 1.6 | 0.00 | 0.00 | 0.00 | 1 | 1018.9 |
| 20260831084504 | 22 | 285 | 0.0 | 1.6 | 0.00 | 0.00 | 0.00 | 1 | 1018.9 |
| 20260831083604 | 22 | 0 | 0.0 | 0.0 | 0.00 | 0.00 | 0.00 | 1 | 1018.9 |
| 20260831082704 | 22 | 285 | 0.0 | 1.6 | 0.00 | 0.00 | 0.00 | 1 | 1019.0 |
| 20260831081804 | 22 | 0 | 0.0 | 0.0 | 0.00 | 0.00 | 0.00 | 1 | 1019.1 |
| 20260831080905 | 22 | 285 | 0.0 | 1.6 | 0.00 | 0.00 | 0.00 | 1 | 1019.1 |
| 20260831080005 | 22 | 285 | 0.0 | 1.6 | 0.00 | 0.00 | 0.00 | 1 | 1019.2 |
| 20260831075404 | 22 | 0 | 0.0 | 0.0 | 0.00 | 0.00 | 0.00 | 1 | 1019.2 |
| 20260831074504 | 22 | 0 | 0.0 | 0.0 | 0.00 | 0.00 | 0.00 | 1 | 1019.2 |
| 20260831073604 | 22 | 0 | 0.0 | 0.0 | 0.00 | 0.00 | 0.00 | 1 | 1019.1 |
| 20260831072705 | 22 | 0 | 0.0 | 0.0 | 0.00 | 0.00 | 0.00 | 1 | 1019.2 |
| 20260831071804 | 22 | 0 | 0.0 | 0.0 | 0.00 | 0.00 | 0.00 | 1 | 1019.3 |
| 20260831070904 | 22 | 0 | 0.0 | 0.0 | 0.00 | 0.00 | 0.00 | 1 | 1019.2 |
| 20260831070005 | 22 | 0 | 0.0 | 0.0 | 0.00 | 0.00 | 0.00 | 1 | 1019.3 |
| 20260831065404 | 22 | 0 | 0.0 | 0.0 | 0.00 | 0.00 | 0.00 | 1 | 1019.3 |
| 20260831064504 | 22 | 285 | 0.0 | 1.6 | 0.00 | 0.00 | 0.00 | 1 | 1019.3 |